Welcome to the New NWS' Forecast!
Most changes are behind the scenes, but click here for differences you might notice.

Regional Weather Roundup (RWR)

Issued by Albany, NY (ALY)

                            
000
ASUS41 KALY 200010
RWRALY

NEW YORK STATE HOURLY WEATHER ROUNDUP
NATIONAL WEATHER SERVICE ALBANY NY
700 PM EST MON NOV 19 2018

NOTE: "FAIR" INDICATES FEW OR NO CLOUDS BELOW 12,000 FEET WITH NO
SIGNIFICANT WEATHER AND/OR NO OBSTRUCTIONS TO VISIBILITY.

NYZ032-033-038>043-046>054-057>066-NYZ062>081-082-084-200100-
EAST

  
CITY           SKY/WX    TMP DP  RH WIND       PRES   REMARKS
ALBANY         DRIZZLE   38  29  70 S7        30.05S WCI  33          
GLENS FALLS    CLOUDY    35  34  96 CALM      30.02F                  
POUGHKEEPSIE   CLOUDY    38  35  89 N3        30.02S                  
NEWBURGH       CLOUDY    37  37 100 VRB5      30.01F WCI  34          
MONTGOMERY     LGT RAIN  38  35  89 N8        30.01R WCI  32          
WHITE PLAINS   CLOUDY    44  38  79 CALM      29.98F                  
ISLIP          CLOUDY    45  41  86 CALM      30.00F                  
NEW YORK CITY  MOCLDY    49  38  65 E5        29.99F                  
CENTRAL PARK   FAIR      48  38  68 MISG      30.01F                  
$$

NYZ005>009-017-018-044>046-055-056-200100-
CENTRAL

  
CITY           SKY/WX    TMP DP  RH WIND       PRES   REMARKS
FULTON         FAIR      33  23  66 CALM      30.01S                  
SYRACUSE       MOCLDY    32  25  75 CALM      30.02R                  
ROME           FAIR      32  30  92 CALM      30.03S                  
ELMIRA         LGT SNOW  34  32  92 NE3       29.98S FOG              
BINGHAMTON     LGT SNOW  31  31 100 E3        29.96S VSB 3/4          
MONTICELLO     LGT SNOW  32  30  93 NE3       29.99S VSB 3/4          
$$

NYZ026>034-041>043-087-200100-
NORTH

  
CITY           SKY/WX    TMP DP  RH WIND       PRES   REMARKS
WATERTOWN      FAIR      34  28  79 CALM      30.01S                  
FORT DRUM      NOT AVBL                                               
OGDENSBURG     MOCLDY    33  29  83 NE5       30.03R WCI  29          
MASSENA        CLOUDY    33  28  81 NE3       30.05R                  
SARANAC LAKE   FAIR      26  25  96 CALM      29.95S                  
PLATTSBURGH    FAIR      33  28  81 N6        30.03R WCI  28          
$$

NYZ001>004-010>016-019>021-085-200100-
WEST

  
CITY           SKY/WX    TMP DP  RH WIND       PRES   REMARKS
NIAGARA FALLS  FAIR      33  27  78 CALM      29.99R                  
BUFFALO        CLOUDY    36  26  67 NE3       29.98S                  
DUNKIRK        CLOUDY    34  31  88 CALM      29.99R                  
JAMESTOWN      CLOUDY    32  30  92 CALM      29.94S                  
WELLSVILLE     LGT SNOW  31  31 100 E3        29.93S FOG              
ROCHESTER      CLOUDY    36  28  73 CALM      30.00S                  
PENN YAN       CLOUDY    35  31  85 S5        29.99S WCI  31          
$$

             KEY
       WCI = WIND CHILL INDEX
       VSB = VISIBILITY
       HX  = HEAT INDEX
$$